Stations météo

réclame
Mon MeteoGroup
Exeter Airport No. 2, Grande-Bretagne (3844): Température de l'air & dewpoint: 18.11.2020 23:00:00 - 24.11.2020 23:00:00 (GMT)Exeter Airport No. 2, Grande-Bretagne (3844): Température de l'air -20cm & Température de l'air -100cm: 18.11.2020 23:00:00 - 24.11.2020 23:00:00 (GMT)Exeter Airport No. 2, Grande-Bretagne (3844): reduced air pressure: 18.11.2020 23:00:00 - 24.11.2020 23:00:00 (GMT)Exeter Airport No. 2, Grande-Bretagne (3844): visibility: 18.11.2020 23:00:00 - 24.11.2020 23:00:00 (GMT)Exeter Airport No. 2, Grande-Bretagne (3844): Ensoleillement: 18.11.2020 23:00:00 - 24.11.2020 23:00:00 (GMT)Exeter Airport No. 2, Grande-Bretagne (3844): Quantités de précipitations: 18.11.2020 23:00:00 - 24.11.2020 23:00:00 (GMT)
Date & Time tt [°C] td [°C] tt -20cm [°C] tt -100cm [°C] ppp [hPa] vv [km] sd [min] rr [mm]
24.11.2020 23:00:00 12,8 11,0 - - 1008,0 18 0 0,0
24.11.2020 22:00:00 12,5 10,9 - - 1008,6 15 0 0,0
24.11.2020 21:00:00 12,2 10,8 - - 1009,0 14 0 0,0
24.11.2020 20:00:00 12,2 9,8 - - 1009,6 17 0 0,0
24.11.2020 19:00:00 12,9 9,9 - - 1009,7 25 0 0,0
24.11.2020 18:00:00 12,7 10,7 - - 1009,9 17 0 0,0
24.11.2020 17:00:00 12,4 10,4 - - 1009,9 19 0 0,0
24.11.2020 16:00:00 12,2 10,0 - - 1010,5 24 0 0,0
24.11.2020 15:00:00 12,1 9,7 - - 1011,3 26 0 0,0
24.11.2020 14:00:00 12,3 9,4 - - 1012,4 25 18 0,0
24.11.2020 13:00:00 13,0 10,0 - - 1013,4 24 54 0,0
24.11.2020 12:00:00 13,4 10,1 - - 1014,2 26 54 0,0
24.11.2020 11:00:00 12,3 9,3 - - 1015,4 30 6 0,0
24.11.2020 10:00:00 12,0 9,5 - - 1016,1 25 0 0,0
24.11.2020 09:00:00 11,1 9,1 11,2 12,0 1017,0 24 0 0,0
24.11.2020 08:00:00 10,5 8,4 - - 1017,4 27 0 0,0
24.11.2020 07:00:00 10,9 9,1 - - 1017,3 27 0 0,0
24.11.2020 06:00:00 11,0 9,0 - - 1017,7 28 0 0,0
24.11.2020 05:00:00 11,3 9,6 - - 1018,4 23 0 0,0
24.11.2020 04:00:00 11,2 9,5 - - 1019,2 19 0 0,0
24.11.2020 03:00:00 10,7 9,4 - - 1020,1 19 0 0,0
24.11.2020 02:00:00 10,3 9,5 - - 1020,9 19 0 0,0
24.11.2020 01:00:00 10,4 9,2 - - 1022,2 4,1 0 0,0
24.11.2020 00:00:00 10,8 9,7 - - 1022,6 30 - 0,2
23.11.2020 23:00:00 10,9 9,5 - - 1023,0 4,7 0 0,0
23.11.2020 22:00:00 11,2 8,5 - - 1023,4 45 0 0,0
23.11.2020 21:00:00 11,0 8,9 - - 1024,0 55 0 0,0
23.11.2020 20:00:00 10,4 9,0 - - 1024,2 60 0 0,0
23.11.2020 19:00:00 10,4 8,9 - - 1024,4 65 0 0,0
23.11.2020 18:00:00 11,0 9,4 - - 1024,5 45 0 0,0
23.11.2020 17:00:00 10,5 8,4 - - 1024,9 65 0 0,0
23.11.2020 16:00:00 10,9 8,3 - - 1025,2 60 24 0,0
23.11.2020 15:00:00 11,9 9,0 - - 1025,4 70 18 0,0
23.11.2020 14:00:00 11,9 9,4 - - 1025,8 55 24 0,0
23.11.2020 13:00:00 12,3 9,4 - - 1026,3 55 60 0,0
23.11.2020 12:00:00 11,3 9,7 - - 1027,0 45 54 0,0
23.11.2020 11:00:00 8,9 8,9 - - 1027,7 8 18 0,0
23.11.2020 10:00:00 5,9 5,9 - - 1028,0 11 0 0,0
23.11.2020 09:00:00 5,0 5,0 11,2 12,0 1027,9 9 0 0,0
23.11.2020 08:00:00 4,8 4,8 - - 1027,9 1,8 0 0,0
23.11.2020 07:00:00 4,4 4,4 - - 1027,7 - 0 0,0
23.11.2020 06:00:00 4,4 4,4 - - 1027,7 0,1 0 0,0
23.11.2020 05:00:00 4,8 4,8 - - 1027,9 0,1 0 0,0
23.11.2020 04:00:00 4,8 4,8 - - 1028,2 0,1 0 0,2
23.11.2020 03:00:00 5,0 5,0 - - 1028,3 - 0 0,0
23.11.2020 02:00:00 5,0 5,0 - - 1028,4 0,1 0 0,0
23.11.2020 01:00:00 5,0 4,9 - - 1028,4 - 0 0,0
23.11.2020 00:00:00 5,4 5,3 - - 1028,5 0,3 - 0,0
22.11.2020 23:00:00 6,0 5,9 - - 1028,3 - 0 0,0
22.11.2020 22:00:00 6,4 6,2 - - 1028,3 - 0 0,0
22.11.2020 21:00:00 7,5 7,4 - - 1028,1 0,4 0 0,0
22.11.2020 20:00:00 7,5 7,0 - - 1027,9 2,7 0 0,0
22.11.2020 19:00:00 8,8 8,3 - - 1027,7 6 0 0,0
22.11.2020 18:00:00 9,2 8,6 - - 1027,3 11 0 0,0
22.11.2020 17:00:00 9,3 8,5 - - 1027,2 19 0 0,2
22.11.2020 16:00:00 10,1 7,6 - - 1026,9 11 0 0,0
22.11.2020 15:00:00 10,3 7,9 - - 1026,9 45 0 0,0
22.11.2020 14:00:00 10,5 8,3 - - 1027,1 20 0 0,0
22.11.2020 13:00:00 11,1 8,1 - - 1027,4 35 0 0,0
22.11.2020 12:00:00 10,7 8,5 - - 1027,8 30 0 0,0
22.11.2020 11:00:00 10,4 9,4 - - 1028,0 7 0 0,0
22.11.2020 10:00:00 10,2 9,9 - - 1027,6 23 0 0,0
22.11.2020 09:00:00 9,7 9,5 11,2 12,0 1027,3 17 0 0,0
22.11.2020 08:00:00 9,7 9,4 - - 1027,0 10 0 0,0
22.11.2020 07:00:00 9,4 9,1 - - 1026,7 24 0 0,0
22.11.2020 06:00:00 9,5 9,1 - - 1026,6 29 0 0,0
22.11.2020 05:00:00 10,0 9,4 - - 1026,4 35 0 0,0
22.11.2020 04:00:00 10,4 9,8 - - 1026,4 50 0 0,0
22.11.2020 03:00:00 10,9 10,0 - - 1026,3 18 0 0,0
22.11.2020 02:00:00 11,1 9,4 - - 1025,9 30 0 0,0
22.11.2020 01:00:00 11,3 9,2 - - 1026,0 70 0 0,0
22.11.2020 00:00:00 11,2 9,2 - - 1026,0 55 - 0,0
21.11.2020 23:00:00 11,0 8,8 - - 1026,1 55 0 0,0
21.11.2020 22:00:00 10,8 8,6 - - 1026,3 60 0 0,0
21.11.2020 21:00:00 11,4 8,9 - - 1026,6 60 0 0,0
21.11.2020 20:00:00 11,0 8,6 - - 1026,7 55 0 0,0
21.11.2020 19:00:00 10,4 8,4 - - 1026,7 60 0 0,0
21.11.2020 18:00:00 11,6 8,6 - - 1026,5 60 0 0,0
21.11.2020 17:00:00 11,7 8,7 - - 1026,6 60 0 0,0
21.11.2020 16:00:00 11,9 9,0 - - 1026,6 60 0 0,0
21.11.2020 15:00:00 12,1 9,5 - - 1026,6 75 0 0,0
21.11.2020 14:00:00 12,1 9,3 - - 1026,7 60 0 0,0
21.11.2020 13:00:00 12,4 8,6 - - 1027,2 65 0 0,0
21.11.2020 12:00:00 12,3 8,5 - - 1027,8 45 0 0,0
21.11.2020 11:00:00 11,9 7,5 - - 1028,1 40 0 0,0
21.11.2020 10:00:00 11,7 7,5 - - 1028,1 35 0 0,0
21.11.2020 09:00:00 11,2 7,0 11,0 12,2 1028,3 35 0 0,0
21.11.2020 08:00:00 10,6 7,0 - - 1028,2 35 0 0,0
21.11.2020 07:00:00 11,0 7,1 - - 1028,2 45 0 0,0
21.11.2020 06:00:00 11,0 7,0 - - 1028,3 35 0 0,0
21.11.2020 05:00:00 10,8 6,9 - - 1028,3 40 0 0,0
21.11.2020 04:00:00 11,0 6,8 - - 1028,7 40 0 0,0
21.11.2020 03:00:00 10,8 8,0 - - 1028,7 40 0 0,0
21.11.2020 02:00:00 10,6 7,7 - - 1028,8 50 0 0,0
21.11.2020 01:00:00 10,2 7,8 - - 1029,5 55 0 0,0
21.11.2020 00:00:00 9,6 7,7 - - 1029,7 50 - 0,0
20.11.2020 23:00:00 9,4 7,1 - - 1030,2 40 0 0,0
20.11.2020 22:00:00 10,0 7,3 - - 1030,4 40 0 0,0
20.11.2020 21:00:00 10,7 7,4 - - 1030,8 35 0 0,0
20.11.2020 20:00:00 10,4 8,0 - - 1031,1 35 0 0,0
20.11.2020 19:00:00 10,7 9,2 - - 1031,2 26 0 0,0
20.11.2020 18:00:00 10,8 9,3 - - 1031,2 35 0 0,0
20.11.2020 17:00:00 10,8 9,2 - - 1031,0 50 0 0,0
20.11.2020 16:00:00 10,5 9,0 - - 1031,4 65 0 0,0
20.11.2020 15:00:00 10,4 9,1 - - 1031,7 21 0 0,0
20.11.2020 14:00:00 10,8 9,1 - - 1031,8 75 0 0,0
20.11.2020 13:00:00 10,7 9,1 - - 1032,8 60 0 0,0
20.11.2020 12:00:00 10,0 8,8 - - 1033,7 50 0 0,0
20.11.2020 11:00:00 9,5 8,5 - - 1033,8 21 0 0,6
20.11.2020 10:00:00 8,9 8,1 - - 1034,3 13 0 0,4
20.11.2020 09:00:00 8,4 7,8 11,0 12,2 1034,5 9 0 0,4
20.11.2020 08:00:00 7,6 7,1 - - 1034,4 8 0 0,4
20.11.2020 07:00:00 5,9 5,5 - - 1034,5 13 0 0,0
20.11.2020 06:00:00 5,0 4,6 - - 1035,1 16 0 0,0
20.11.2020 05:00:00 4,4 4,1 - - 1035,2 17 0 0,0
20.11.2020 04:00:00 3,7 3,3 - - 1035,5 20 0 0,0
20.11.2020 03:00:00 3,4 3,0 - - 1036,1 17 0 0,0
20.11.2020 02:00:00 3,3 3,0 - - 1036,4 18 0 0,0
20.11.2020 01:00:00 1,3 1,0 - - 1037,2 18 0 0,0
20.11.2020 00:00:00 1,1 0,6 - - 1037,2 13 - 0,0
19.11.2020 23:00:00 2,2 1,7 - - 1037,4 15 0 0,0
19.11.2020 22:00:00 2,6 1,6 - - 1037,3 21 0 0,0
19.11.2020 21:00:00 3,9 2,8 - - 1036,5 17 0 0,0
19.11.2020 20:00:00 4,5 3,3 - - 1035,9 27 0 0,0
19.11.2020 19:00:00 4,9 2,9 - - 1035,6 29 0 0,0
19.11.2020 18:00:00 5,5 3,0 - - 1035,4 30 0 0,0
19.11.2020 17:00:00 7,4 3,5 - - 1035,4 40 0 0,0
19.11.2020 16:00:00 8,5 3,2 - - 1034,5 55 36 0,0
19.11.2020 15:00:00 9,7 3,3 - - 1033,5 50 30 0,0
19.11.2020 14:00:00 10,1 3,4 - - 1032,7 50 54 0,0
19.11.2020 13:00:00 10,1 3,9 - - 1032,5 50 18 0,0
19.11.2020 12:00:00 10,0 4,3 - - 1032,3 45 18 0,0
19.11.2020 11:00:00 9,7 4,6 - - 1031,3 35 0 0,0
19.11.2020 10:00:00 9,2 4,8 - - 1029,8 35 0 0,0
19.11.2020 09:00:00 8,7 4,8 11,7 12,2 1028,3 35 0 0,0
19.11.2020 08:00:00 8,6 4,7 - - 1026,1 30 0 0,0
19.11.2020 07:00:00 8,8 5,5 - - 1025,4 4,4 0 0,0
19.11.2020 06:00:00 9,4 4,2 - - 1024,3 25 0 0,0
19.11.2020 05:00:00 9,4 4,5 - - 1023,7 23 0 0,0
19.11.2020 04:00:00 9,2 4,5 - - 1023,2 25 0 0,0
19.11.2020 03:00:00 9,6 5,6 - - 1022,2 24 0 0,0
19.11.2020 02:00:00 9,7 6,4 - - 1021,4 23 0 0,0
19.11.2020 01:00:00 10,5 4,9 - - 1021,0 21 0 0,0
19.11.2020 00:00:00 9,9 4,9 - - 1020,6 22 - 0,0
18.11.2020 23:00:00 7,8 4,3 - - 1020,6 23 0 0,0

tt = Température de l'air
td = dewpoint
tt -20cm = Température de l'air -20cm
tt -100cm = Température de l'air -100cm
ppp = reduced air pressure
vv = visibility
sd = Ensoleillement
rr = Quantités de précipitations

stations d'obs. à proximité